Flag for U.S.A. Weather past 2 weeks in Butte, Montana, U.S.A.

Now
52 °F

Sunny.


Feels Like: 52 °F
Forecast: 32 / 58 °F
Wind: No wind

Location: Mooney Airport

Current Time: Oct 25, 2014 at 12:46:16 PM

Latest Report: Oct 25, 2014 at 11:53 AM


Visibility: 10 mi

Pressure: 29.91 "Hg

Humidity: 59%

Dew point: 38 °F

Location of ButteLocation

Historic Weather in Butte — Graph

°F

Butte temperature yesterday

Maximum temperature yesterday: 47 °F (at 3:53 PM)
Minimum temperature yesterday: 34 °F (at 11:53 PM)
Average temperature yesterday: 43 °F

Past Weeks' High & Low Weather Summary

 TemperatureHumidityPressure
High72 °F (Oct 20, 3:53 PM)100% (Oct 21, 11:53 AM)30.24 "Hg (Oct 21, 11:53 AM)
Low21 °F (Oct 17, 7:53 AM)18% (Oct 15, 1:53 PM)29.52 "Hg (Oct 15, 1:53 PM)
Average45 °F62%29.99 "Hg
* Reported Oct 10 10:53 AM — Oct 25 10:53 AM, Butte, Weather by CustomWeather, © 2014

Note: Actual official high and low records may vary slightly from our data, if they occured in-between our weather recording intervals... More about our weather records

Advertising

Butte weather history for previous 24 hours

 ConditionsComfort  
Time TempWeatherWind HumidityBarometerVisibility
10:53 AM
Oct 25
44 °FSunny.No wind73%29.96 "Hg10 mi
9:53 AM36 °FSunny.No wind89%30.01 "Hg10 mi
8:53 AM29 °FClear.No wind89%30.04 "Hg10 mi
7:53 AM29 °FClear.No wind93%30.04 "Hg10 mi
6:53 AM30 °FClear.No wind96%30.05 "Hg10 mi
5:53 AM29 °FClear.5 mph96%30.06 "Hg10 mi
5:02 AM30 °FIce fog.3 mph96%30.05 "Hg4 mi
3:53 AM31 °FClear.No wind100%30.09 "Hg10 mi
2:53 AM32 °FClear.6 mph96%30.11 "Hg10 mi
1:53 AM34 °FClear.5 mph92%30.10 "Hg10 mi
12:53 AM35 °FClear.No wind96%30.11 "Hg10 mi
11:53 PM
Oct 24
34 °FClear.6 mph97%30.13 "Hg10 mi
10:53 PM36 °FClear.6 mph97%30.12 "Hg10 mi
9:53 PM37 °FClear.6 mph96%30.11 "Hg10 mi
8:53 PM42 °FPassing clouds.No wind96%30.09 "Hg10 mi
7:53 PM44 °FClear.6 mph93%30.08 "Hg10 mi
6:53 PM45 °FMore clouds than sun.3 mph86%30.08 "Hg10 mi
5:53 PM46 °FLight rain. Mostly cloudy.No wind79%30.08 "Hg10 mi
4:53 PM47 °FOvercast.No wind74%30.08 "Hg10 mi
3:53 PM47 °FLight rain. Mostly cloudy.No wind71%30.09 "Hg10 mi
2:53 PM46 °FMostly cloudy.No wind73%30.11 "Hg10 mi
1:53 PM46 °FLight rain. Cloudy.No wind71%30.10 "Hg10 mi
12:53 PM45 °FLight rain. Mostly cloudy.6 mph76%30.12 "Hg10 mi
Weather by CustomWeather, © 2014

See weather overviewHow to use our weather pages